When you browse on this site, cookies collect data to enhance your experience and personalize the content and advertising you see.
Visit our Privacy Policy to learn more. By continuing to use the site, you agree to this use of cookies and data.
  • In Netherlands
  • List of Countries
  • For 7 days
  • Water Temperature
  • Weather Map
  • Weather Widgets
  • user-avatar
    Login

    Hourly Weather Pasternaki

    Today, 3 June, Wednesday

    Time Temperature Precipitation Wind Pressure Humidity
    00:00 +7°C° 0 mm 2 mps 738 mmHg 96%
    01:00 +7°C° 0 mm 2 mps 739 mmHg 95%
    02:00 +6°C° 0 mm 2 mps 739 mmHg 95%
    03:00 +7°C° 0 mm 2 mps 738 mmHg 95%
    04:00 +7°C° 0 mm 2 mps 738 mmHg 95%
    05:00 +7°C° 0 mm 2 mps 738 mmHg 96%
    06:00 +9°C° 0 mm 2 mps 738 mmHg 91%
    07:00 +12°C° 0 mm 2 mps 738 mmHg 86%
    08:00 +14°C° 0 mm 2 mps 738 mmHg 82%
    09:00 +15°C° 0 mm 2 mps 738 mmHg 76%
    10:00 +16°C° 0 mm 2 mps 738 mmHg 70%
    11:00 +17°C° 0 mm 2 mps 738 mmHg 65%
    12:00 +17°C° 0.1 mm 2 mps 738 mmHg 64%
    13:00 +18°C° 0.1 mm 2 mps 738 mmHg 62%
    14:00 +18°C° 0.1 mm 2 mps 738 mmHg 61%
    15:00 +18°C° 0.1 mm 2 mps 737 mmHg 63%
    16:00 +18°C° 0.1 mm 2 mps 737 mmHg 64%
    17:00 +18°C° 0.1 mm 2 mps 736 mmHg 66%
    18:00 +16°C° 0 mm 2 mps 736 mmHg 72%
    19:00 +14°C° 0 mm 1 mps 736 mmHg 78%
    20:00 +13°C° 0 mm 1 mps 737 mmHg 84%
    21:00 +12°C° 0 mm 1 mps 736 mmHg 85%
    22:00 +11°C° 0 mm 1 mps 736 mmHg 86%
    23:00 +10°C° 0 mm 1 mps 736 mmHg 87%

    Tomorrow, 4 June, Thursday

    Time Temperature Precipitation Wind Pressure Humidity
    00:00 +10°C° 0 mm 1 mps 736 mmHg 88%
    01:00 +9°C° 0 mm 1 mps 736 mmHg 89%
    02:00 +9°C° 0 mm 1 mps 736 mmHg 90%
    03:00 +9°C° 0 mm 1 mps 736 mmHg 90%
    04:00 +10°C° 0 mm 1 mps 736 mmHg 90%
    05:00 +10°C° 0 mm 1 mps 735 mmHg 90%
    06:00 +10°C° 0 mm 2 mps 736 mmHg 87%
    07:00 +13°C° 0 mm 2 mps 736 mmHg 83%
    08:00 +14°C° 0 mm 2 mps 736 mmHg 80%
    09:00 +14°C° 0.3 mm 3 mps 736 mmHg 79%
    10:00 +14°C° 0.3 mm 4 mps 735 mmHg 79%
    11:00 +14°C° 0.3 mm 4 mps 735 mmHg 78%
    12:00 +15°C° 0.6 mm 4 mps 735 mmHg 78%
    13:00 +15°C° 0.6 mm 4 mps 735 mmHg 77%
    14:00 +17°C° 0.6 mm 4 mps 735 mmHg 77%
    15:00 +17°C° 0.5 mm 4 mps 735 mmHg 78%
    16:00 +17°C° 0.5 mm 4 mps 735 mmHg 79%
    17:00 +17°C° 0.5 mm 4 mps 735 mmHg 80%
    18:00 +14°C° 0.2 mm 4 mps 735 mmHg 84%
    19:00 +13°C° 0.2 mm 3 mps 735 mmHg 87%
    20:00 +11°C° 0.2 mm 3 mps 734 mmHg 91%
    21:00 +11°C° 0 mm 3 mps 734 mmHg 92%
    22:00 +10°C° 0 mm 3 mps 734 mmHg 93%
    23:00 +10°C° 0 mm 3 mps 734 mmHg 94%

    Day after tomorrow, 5 June, Friday

    Time Temperature Precipitation Wind Pressure Humidity
    00:00 +9°C° 0.2 mm 3 mps 735 mmHg 95%
    01:00 +9°C° 0.2 mm 3 mps 735 mmHg 95%
    02:00 +9°C° 0.2 mm 3 mps 735 mmHg 96%
    03:00 +9°C° 0 mm 3 mps 735 mmHg 96%
    04:00 +9°C° 0 mm 3 mps 735 mmHg 96%
    05:00 +10°C° 0 mm 3 mps 735 mmHg 97%
    06:00 +11°C° 0.2 mm 4 mps 735 mmHg 94%
    07:00 +12°C° 0.2 mm 4 mps 735 mmHg 92%
    08:00 +14°C° 0.2 mm 4 mps 736 mmHg 90%
    09:00 +15°C° 0.3 mm 5 mps 736 mmHg 85%
    10:00 +16°C° 0.3 mm 5 mps 736 mmHg 80%
    11:00 +17°C° 0.3 mm 5 mps 736 mmHg 75%
    12:00 +19°C° 0.5 mm 5 mps 736 mmHg 76%
    13:00 +19°C° 0.5 mm 5 mps 736 mmHg 78%
    14:00 +19°C° 0.5 mm 5 mps 736 mmHg 79%
    15:00 +19°C° 0.4 mm 5 mps 736 mmHg 80%
    16:00 +17°C° 0.4 mm 5 mps 736 mmHg 81%
    17:00 +17°C° 0.4 mm 5 mps 736 mmHg 83%
    18:00 +17°C° 0.1 mm 4 mps 736 mmHg 87%
    19:00 +15°C° 0.1 mm 4 mps 736 mmHg 91%
    20:00 +14°C° 0.1 mm 3 mps 736 mmHg 95%
    21:00 +14°C° 0.3 mm 4 mps 736 mmHg 96%
    22:00 +14°C° 0.3 mm 4 mps 736 mmHg 97%
    23:00 +14°C° 0.3 mm 4 mps 737 mmHg 98%

    6 June, Saturday

    Time Temperature Precipitation Wind Pressure Humidity
    00:00 +14°C° 0.4 mm 4 mps 736 mmHg 97%
    01:00 +14°C° 0.4 mm 4 mps 736 mmHg 97%
    02:00 +14°C° 0.4 mm 4 mps 736 mmHg 97%
    03:00 +14°C° 0 mm 4 mps 737 mmHg 96%
    04:00 +15°C° 0 mm 4 mps 737 mmHg 96%
    05:00 +15°C° 0 mm 4 mps 737 mmHg 95%
    06:00 +17°C° 0 mm 4 mps 737 mmHg 93%
    07:00 +17°C° 0 mm 5 mps 737 mmHg 91%
    08:00 +20°C° 0 mm 5 mps 738 mmHg 89%
    09:00 +20°C° 0.8 mm 5 mps 738 mmHg 88%
    10:00 +20°C° 0.8 mm 6 mps 738 mmHg 88%
    11:00 +20°C° 0.8 mm 6 mps 738 mmHg 88%
    12:00 +20°C° 0.3 mm 6 mps 739 mmHg 88%
    13:00 +20°C° 0.3 mm 6 mps 739 mmHg 87%
    14:00 +20°C° 0.3 mm 5 mps 740 mmHg 86%
    15:00 +21°C° 0.5 mm 5 mps 740 mmHg 86%
    16:00 +21°C° 0.5 mm 5 mps 740 mmHg 85%
    17:00 +21°C° 0.5 mm 5 mps 741 mmHg 85%
    18:00 +20°C° 0.1 mm 4 mps 741 mmHg 87%
    19:00 +19°C° 0.1 mm 3 mps 742 mmHg 89%
    20:00 +18°C° 0.1 mm 2 mps 742 mmHg 92%
    21:00 +17°C° 0 mm 2 mps 743 mmHg 91%
    22:00 +16°C° 0 mm 1 mps 743 mmHg 91%
    23:00 +15°C° 0 mm 1 mps 744 mmHg 91%

    7 June, Sunday

    Time Temperature Precipitation Wind Pressure Humidity
    00:00 +15°C° 0 mm 1 mps 744 mmHg 90%
    01:00 +13°C° 0 mm 0 mps 745 mmHg 89%
    02:00 +13°C° 0 mm 0 mps 745 mmHg 89%
    03:00 +13°C° 0 mm 0 mps 745 mmHg 89%
    04:00 +15°C° 0 mm 1 mps 745 mmHg 89%
    05:00 +15°C° 0 mm 1 mps 746 mmHg 89%
    06:00 +17°C° 0 mm 2 mps 746 mmHg 87%
    07:00 +18°C° 0 mm 2 mps 746 mmHg 86%
    08:00 +20°C° 0 mm 2 mps 747 mmHg 84%
    09:00 +21°C° 0 mm 3 mps 747 mmHg 80%
    10:00 +24°C° 0 mm 3 mps 747 mmHg 75%
    11:00 +25°C° 0 mm 3 mps 747 mmHg 71%
    12:00 +25°C° 0.3 mm 3 mps 747 mmHg 72%
    13:00 +26°C° 0.3 mm 4 mps 746 mmHg 73%
    14:00 +26°C° 0.3 mm 4 mps 746 mmHg 75%
    15:00 +26°C° 0.4 mm 4 mps 746 mmHg 77%
    16:00 +26°C° 0.4 mm 4 mps 746 mmHg 79%
    17:00 +26°C° 0.4 mm 4 mps 745 mmHg 81%
    18:00 +24°C° 0 mm 3 mps 745 mmHg 84%
    19:00 +22°C° 0 mm 3 mps 745 mmHg 87%
    20:00 +20°C° 0 mm 3 mps 745 mmHg 89%
    21:00 +19°C° 0 mm 3 mps 746 mmHg 91%
    22:00 +19°C° 0 mm 3 mps 746 mmHg 92%
    23:00 +18°C° 0 mm 3 mps 746 mmHg 93%

    8 June, Monday

    Time Temperature Precipitation Wind Pressure Humidity
    00:00 +17°C° 0 mm 3 mps 746 mmHg 93%
    01:00 +17°C° 0 mm 3 mps 746 mmHg 94%
    02:00 +17°C° 0 mm 3 mps 746 mmHg 95%
    03:00 +17°C° 0 mm 3 mps 746 mmHg 95%
    04:00 +17°C° 0 mm 3 mps 746 mmHg 95%
    05:00 +17°C° 0 mm 2 mps 746 mmHg 96%
    06:00 +19°C° 0 mm 3 mps 746 mmHg 91%
    07:00 +20°C° 0 mm 3 mps 746 mmHg 87%
    08:00 +22°C° 0 mm 3 mps 747 mmHg 83%
    09:00 +24°C° 0 mm 3 mps 747 mmHg 78%
    10:00 +25°C° 0 mm 4 mps 747 mmHg 74%
    11:00 +26°C° 0 mm 4 mps 747 mmHg 70%
    12:00 +27°C° 0 mm 4 mps 747 mmHg 68%
    13:00 +27°C° 0 mm 4 mps 747 mmHg 67%
    14:00 +28°C° 0 mm 4 mps 746 mmHg 66%
    15:00 +27°C° 0 mm 4 mps 746 mmHg 69%
    16:00 +27°C° 0 mm 3 mps 746 mmHg 73%
    17:00 +27°C° 0 mm 3 mps 746 mmHg 76%
    18:00 +25°C° 0 mm 3 mps 746 mmHg 80%
    19:00 +24°C° 0 mm 2 mps 746 mmHg 83%
    20:00 +21°C° 0 mm 2 mps 746 mmHg 87%
    21:00 +21°C° 0 mm 2 mps 746 mmHg 89%
    22:00 +20°C° 0 mm 2 mps 746 mmHg 90%
    23:00 +19°C° 0 mm 2 mps 747 mmHg 92%
    Show more